SL-14 DEB, 45347

Orbit data source: Space-Track

SL-14 DEB, 45347 is space debris in LEO originally from a launch on Thu, 15 Aug 1991 UTC launched from the Plesetsk Missile And Space Complex (PKMTR). Debris objects in space refer to the collection of defunct objects orbiting the Earth. Examples of debris include non-operational satellites, rocket bodies, and fragments generated from explosions, collisions, or faulty payload assembly.

Loading next visibility...
Identifier
45347, 1991-056CG
Orbit
LEO
Country
Flag of CISCIS
Related business
Manufacturer
Unknown
Mission
Spacecraft
Bus & Motor
Unknown
Mass
Unknown
Launch date (UTC)
1991-08-15 (35 years ago)
Launch vehicle
Unknown
Launch site
Plesetsk Missile And Space Complex (PKMTR)
Object type
Payload
Rocket body
Debris
Shape & HBR
Unknown shape, 0.1 m
Radar Cross Section
Small (<0.1 m²)

Expand to show TLE details & history
Last TLE update: 3 months ago

TLE from 3 months ago
0 SL-14 DEB
1 45347U 91056CG  26020.59803389  .00040208  00000-0  27674-1 0  9990
2 45347  82.6267 132.6725 0111014 324.5411  34.8409 13.96139509295404
Epoch: 2026-01-20T14:21Z
TLE epoch observation values (Epoch: 2026-01-20T14:21:10.128Z)
Latitude
-0.00008°
Longitude
157.40268°
Altitude
844.02 km
Speed
7.464 km/s
True Right ascension
08h 50m 41s
True Declination
0° 00' 00"
Sunlit
Object was in full shadow at epoch
Visualization orbit readout
Latitude
Unknown
Longitude
Unknown
Altitude
Unknown
Speed
Unknown
Apparent Right ascension
Unknown
Apparent Declination
Unknown
Sunlit
N/A
Visualization observer readout
Local Sidereal Time
10:53:21
Azimuth
Unknown
Elevation
Unknown
Doppler factor
Unknown
Orbital elements
Apogee altitude
985.171 km
Perigee altitude
823.48 km
Semi-major axis
7,282.463 km
Eccentricity
0.0111
Inclination
82.6267°
RAAN
132.6725°
Arg. of periapsis
324.5411°
True anomaly
35.57601°
Mean anomaly
34.8409°
Eccentric anomaly
35.20762°
Mean motion
3.49241 °/min
Orbital period
103.08 mins
BSTAR
0.027674
Loading maneuver chart data...
Computing Atmospheric mass density...
Loading historical data...
Loading historical data...
Loading historical data...
Loading historical data...
Loading historical data...
Loading historical data...
Loading historical data...

Documentation

Showing up to 5 results
|